Location: *
(33.8649°S, 62.1526°E)
Time: 04:34:33
(UTC+00:00)

Meteor 1-31 Rocket - Pass Details

Date: 17 January 2021
Orbit: 521 x 545 km, 97.6° (Epoch: 27 February)

Event Time Altitude Azimuth Distance (km) Brightness Sun altitude
Rises 23:39:38 0° 25° (NNE) 2,703 6.2 -14.8°
Reaches altitude 10° 23:41:47 10° 30° (NNE) 1,819 5.4 -14.5°
Maximum altitude 23:45:35 49° 105° (ESE) 718 3.8 -13.9°
Drops below altitude 10° 23:49:26 10° 180° (S) 1,841 6.0 -13.2°
Sets 23:51:38 0° 185° (S) 2,741 6.8 -12.9°
